Regional Weather Roundup
Issued by NWS Northern Indiana

Home | Current Version | Previous Version | Graphics & Text | Print | Product List | Glossary On
Versions: 1 2 3 4 5 6 7 8 9 10 11 12 13 14 15 16 17 18 19 20 21 22 23 24 25 26 27 28 29 30 31 32 33 34 35 36 37 38 39 40 41 42 43 44 45 46 47 48 49 50
000
ASUS43 KIWX 300810
RWRIWX

KIWX WEATHER ROUNDUP
NATIONAL WEATHER SERVICE NORTHERN INDIANA
400 AM EDT SAT AUG 30 2014

NOTE: "FAIR" INDICATES FEW OR NO CLOUDS BELOW 12,000 FEET WITH NO
SIGNIFICANT WEATHER AND/OR OBSTRUCTIONS TO VISIBILITY.

* THESE STATIONS ARE NOT UNDER NWS QUALITY CONTROL. THEY ALSO MAY NOT
  REPORT WEATHER SUCH AS PRECIPITATION OR FOG.

INZ001>027-300900-
NORTHERN INDIANA

CITY           SKY/WX    TMP DP  RH WIND       PRES   REMARKS
GARY*          MOCLDY    76  69  78 S8        29.86F
VALPARAISO     PTCLDY    72  68  87 S7        29.90F
MICHIGAN CITY* PTCLDY    72  68  88 S8        29.88F
LAPORTE*       PTCLDY    71  69  95 S6        29.91S
KNOX*          PTCLDY    72  67  85 S9        29.90S
SOUTH BEND     PTCLDY    73  68  84 S10       29.91F
GOSHEN         CLEAR     75  66  73 S10       29.93F
MONTICELLO*    PTCLDY    72  68  86 S8        29.92F
LOGANSPORT*    PTCLDY    70  63  78 S8        29.95S
ROCHESTER*     CLEAR     73  68  83 S9        29.94S
WARSAW*        CLEAR     72  66  83 S3        29.94F
ANGOLA*        CLEAR     70  61  73 S6        29.96F
FORT WAYNE     PTCLDY    69  66  90 S8        29.97F
HUNTINGTON*    CLEAR     71  66  85 S5        29.97S
PERU/GRISSOM   CLEAR     72  69  91 S9        29.95F
MARION*        CLEAR     70  63  79 S6        29.98S

$$
INZ028>050-300900-
CENTRAL INDIANA

CITY           SKY/WX    TMP DP  RH WIND       PRES   REMARKS
LAFAYETTE      MOCLDY    72  67  84 S7        29.92F
KOKOMO*        CLEAR     70  64  83 S9        29.96F
MUNCIE*        CLEAR     74  62  66 S8        29.99F
INDIANAPOLIS   MOCLDY    72  63  73 S7        29.97S

$$
MIZ043>046-050>051-056>058-064>065-071>073-077>080-300900-
SOUTHWEST LOWER MICHIGAN

CITY           SKY/WX    TMP DP  RH WIND       PRES   REMARKS
BATTLE CREEK   CLEAR     72  65  78 S9        29.94F
BENTON HARBOR  PTCLDY    72  68  87 SE9       29.88F
COLDWATER*     PTCLDY    73  66  78 S7        29.95F
HILLSDALE*     PTCLDY    69  66  89 S6        29.99R
HOLLAND        PTCLDY    72  67  84 S10       29.88F
GRAND RAPIDS   PTCLDY    71  71 100 S9        29.90F
KALAMAZOO      CLEAR     71  66  84 S8        29.92F
STURGIS*         N/A     72  66  83 S8        29.94S
THREE RIVERS*  FAIR      72  67  84 S7        29.93S

$$
OHZ001>008-015>018-024>025-300900-
NORTHWEST OHIO

CITY           SKY/WX    TMP DP  RH WIND       PRES   REMARKS
WAUSEON*       FAIR      66  64  94 S6        29.98F
DEFIANCE       PTCLDY    73  64  73 S8        29.98F
FINDLAY        PTCLDY    71  63  75 S10       30.00F
TOLEDO EXPRESS PTCLDY    71  62  73 S6        29.98F
TOLEDO METCALF PTCLDY    72  61  68 S12       30.00S
LIMA           CLEAR     72  64  76 S10       30.01F

$$
&&


USA.gov is the U.S. government's official web portal to all federal, state and local government web resources and services.